DLH9PZ EDDF-EDDH

Flight info

Callsign DLH9PZ
Flight time 0h 50m
Altitude 33000
Route MARUN8M MARUN Y150 TOLGI DCT SAS P605 NOLGO NOLGO6A
Aircraft A321/M-SDE3FGHIRWY/LB1

Departure

Time 2026-05-07 12:41
Airport Frankfurt Main Airport (EDDF)

Arrival

Time 2026-05-07 13:32
Airport Hamburg Helmut Schmidt Airport (EDDH)
Time Latitude Longitude Altitude Speed Heading
2026-05-07 12:07 50.04687 8.56701 364 ft 0 kts 115°
2026-05-07 12:31 50.04694 8.56677 362 ft 4 kts 115°
2026-05-07 12:32 50.04703 8.56645 360 ft 4 kts 122°
2026-05-07 12:32 50.04718 8.56626 363 ft 4 kts 196°
2026-05-07 12:32 50.04742 8.56643 358 ft 3 kts 204°
2026-05-07 12:32 50.04765 8.56660 362 ft 4 kts 208°
2026-05-07 12:33 50.04783 8.56675 362 ft 0 kts 205°
2026-05-07 12:35 50.04770 8.56665 363 ft 4 kts 207°
2026-05-07 12:35 50.04734 8.56611 356 ft 9 kts 232°
2026-05-07 12:35 50.04685 8.56536 358 ft 11 kts 208°
2026-05-07 12:36 50.04614 8.56486 356 ft 12 kts 204°
2026-05-07 12:36 50.04536 8.56424 357 ft 13 kts 220°
2026-05-07 12:36 50.04494 8.56293 359 ft 14 kts 249°
2026-05-07 12:36 50.04459 8.56143 357 ft 15 kts 250°
2026-05-07 12:37 50.04392 8.56032 356 ft 15 kts 175°
2026-05-07 12:37 50.04295 8.56110 360 ft 17 kts 115°
2026-05-07 12:37 50.04236 8.56242 360 ft 17 kts 159°
2026-05-07 12:37 50.04148 8.56319 360 ft 14 kts 112°
2026-05-07 12:38 50.04173 8.56468 357 ft 14 kts 68°
2026-05-07 12:38 50.04208 8.56615 364 ft 15 kts 70°
2026-05-07 12:38 50.04243 8.56765 361 ft 14 kts 70°
2026-05-07 12:38 50.04278 8.56910 361 ft 15 kts 69°
2026-05-07 12:39 50.04303 8.57017 362 ft 16 kts 69°
2026-05-07 12:39 50.04343 8.57182 364 ft 16 kts 69°
2026-05-07 12:39 50.04385 8.57354 363 ft 18 kts 69°
2026-05-07 12:39 50.04426 8.57538 362 ft 18 kts 78°
2026-05-07 12:40 50.04371 8.57666 368 ft 16 kts 155°
2026-05-07 12:40 50.04279 8.57677 363 ft 13 kts 216°
2026-05-07 12:40 50.04216 8.57457 366 ft 41 kts 249°
2026-05-07 12:40 50.04030 8.56676 358 ft 112 kts 250°
2026-05-07 12:41 50.03690 8.55244 404 ft 161 kts 250°
2026-05-07 12:41 50.03329 8.53647 1204 ft 155 kts 250°
2026-05-07 12:41 50.02952 8.52064 1877 ft 160 kts 252°
2026-05-07 12:41 50.02455 8.50388 2230 ft 185 kts 232°
2026-05-07 12:42 50.01283 8.49334 2683 ft 207 kts 200°
2026-05-07 12:42 49.99884 8.48678 3290 ft 212 kts 198°
2026-05-07 12:42 49.98462 8.48054 3913 ft 213 kts 198°
2026-05-07 12:42 49.97032 8.47420 4565 ft 214 kts 198°
2026-05-07 12:43 49.95593 8.46775 5136 ft 219 kts 198°
2026-05-07 12:43 49.94062 8.46091 5365 ft 241 kts 198°
2026-05-07 12:43 49.92411 8.45336 5828 ft 252 kts 201°
2026-05-07 12:43 49.90942 8.43903 6545 ft 252 kts 231°
2026-05-07 12:44 49.90176 8.41515 7230 ft 250 kts 263°
2026-05-07 12:44 49.90331 8.38868 7933 ft 249 kts 293°
2026-05-07 12:44 49.91341 8.36720 8652 ft 251 kts 323°
2026-05-07 12:44 49.92925 8.35440 9134 ft 267 kts 336°
2026-05-07 12:45 49.94673 8.34292 9678 ft 276 kts 336°
2026-05-07 12:45 49.96462 8.33131 10268 ft 284 kts 336°
2026-05-07 12:45 49.98361 8.31901 10403 ft 307 kts 336°
2026-05-07 12:45 50.00398 8.30579 10525 ft 328 kts 336°
2026-05-07 12:46 50.02637 8.29478 10659 ft 348 kts 347°
2026-05-07 12:46 50.05103 8.29047 10856 ft 365 kts 358°
2026-05-07 12:46 50.07650 8.29427 11323 ft 372 kts 10°
2026-05-07 12:46 50.10151 8.30556 11858 ft 377 kts 17°
2026-05-07 12:47 50.12648 8.31864 12431 ft 379 kts 17°
2026-05-07 12:47 50.15158 8.33182 13012 ft 382 kts 17°
2026-05-07 12:47 50.17683 8.34505 13593 ft 385 kts 17°
2026-05-07 12:47 50.20231 8.35841 14122 ft 388 kts 17°
2026-05-07 12:48 50.22799 8.37189 14628 ft 391 kts 17°
2026-05-07 12:48 50.25387 8.38551 15122 ft 394 kts 17°
2026-05-07 12:48 50.27988 8.39918 15614 ft 396 kts 17°
2026-05-07 12:48 50.30649 8.41323 16129 ft 400 kts 17°
2026-05-07 12:49 50.33288 8.42746 16620 ft 403 kts 18°
2026-05-07 12:49 50.35938 8.44196 17100 ft 405 kts 18°
2026-05-07 12:49 50.38569 8.45646 17575 ft 407 kts 18°
2026-05-07 12:49 50.41256 8.47126 18029 ft 410 kts 18°
2026-05-07 12:50 50.43953 8.48609 18482 ft 412 kts 18°
2026-05-07 12:50 50.46708 8.50116 18873 ft 415 kts 18°
2026-05-07 12:50 50.49417 8.51552 19273 ft 417 kts 17°
2026-05-07 12:50 50.52231 8.52938 19690 ft 420 kts 16°
2026-05-07 12:51 50.55042 8.54261 20090 ft 423 kts 15°
2026-05-07 12:51 50.57874 8.55570 20507 ft 425 kts 15°
2026-05-07 12:51 50.60681 8.56874 20908 ft 428 kts 16°
2026-05-07 12:51 50.63540 8.58218 21304 ft 430 kts 16°
2026-05-07 12:52 50.66417 8.59591 21673 ft 433 kts 16°
2026-05-07 12:52 50.69345 8.61004 22048 ft 436 kts 16°
2026-05-07 12:52 50.72215 8.62395 22409 ft 439 kts 16°
2026-05-07 12:52 50.75143 8.63814 22766 ft 442 kts 16°
2026-05-07 12:53 50.78058 8.65386 23117 ft 445 kts 22°
2026-05-07 12:53 50.80811 8.67654 23463 ft 448 kts 32°
2026-05-07 12:53 50.83316 8.70617 23772 ft 452 kts 41°
2026-05-07 12:53 50.85495 8.74208 24081 ft 454 kts 51°
2026-05-07 12:54 50.87416 8.78193 24389 ft 457 kts 52°
2026-05-07 12:54 50.89334 8.82213 24718 ft 458 kts 52°
2026-05-07 12:54 50.91261 8.86246 25038 ft 460 kts 52°
2026-05-07 12:54 50.93195 8.90296 25345 ft 462 kts 52°
2026-05-07 12:55 50.95138 8.94368 25633 ft 464 kts 52°
2026-05-07 12:55 50.97084 8.98448 25922 ft 465 kts 52°
2026-05-07 12:55 50.99038 9.02550 26187 ft 467 kts 52°
2026-05-07 12:55 51.00995 9.06668 26437 ft 468 kts 52°
2026-05-07 12:56 51.02958 9.10809 26679 ft 469 kts 53°
2026-05-07 12:56 51.04917 9.14950 26989 ft 469 kts 53°
2026-05-07 12:56 51.06878 9.19082 27329 ft 467 kts 51°
2026-05-07 12:56 51.09074 9.22877 27664 ft 466 kts 42°
2026-05-07 12:57 51.11613 9.26059 27987 ft 465 kts 33°
2026-05-07 12:57 51.14430 9.28556 28328 ft 463 kts 24°
2026-05-07 12:57 51.17451 9.30299 28655 ft 462 kts 14°
2026-05-07 12:57 51.20580 9.31418 28982 ft 461 kts 12°
2026-05-07 12:58 51.23718 9.32493 29220 ft 463 kts 12°
2026-05-07 12:58 51.26873 9.33586 29479 ft 464 kts 12°
2026-05-07 12:58 51.30026 9.34687 29762 ft 464 kts 12°
2026-05-07 12:58 51.33185 9.35795 30102 ft 464 kts 12°
2026-05-07 12:59 51.36333 9.36896 30395 ft 463 kts 12°
2026-05-07 12:59 51.39480 9.37995 30668 ft 462 kts 12°
2026-05-07 12:59 51.42616 9.39091 30966 ft 461 kts 12°
2026-05-07 12:59 51.45747 9.40190 31239 ft 461 kts 12°
2026-05-07 13:00 51.48877 9.41291 31521 ft 460 kts 12°
2026-05-07 13:00 51.51997 9.42384 31790 ft 459 kts 12°
2026-05-07 13:00 51.55116 9.43478 32088 ft 458 kts 12°
2026-05-07 13:00 51.58227 9.44566 32374 ft 457 kts 12°
2026-05-07 13:01 51.61331 9.45651 32682 ft 456 kts 12°
2026-05-07 13:01 51.64426 9.46739 32963 ft 455 kts 12°
2026-05-07 13:01 51.70611 9.48932 33048 ft 454 kts 12°
2026-05-07 13:02 51.76772 9.51109 33054 ft 453 kts 12°
2026-05-07 13:02 51.82891 9.53558 33060 ft 453 kts 19°
2026-05-07 13:03 51.88587 9.57941 33059 ft 454 kts 26°
2026-05-07 13:03 51.94211 9.62615 33063 ft 454 kts 26°
2026-05-07 13:04 51.99834 9.67283 33071 ft 454 kts 26°
2026-05-07 13:04 52.05463 9.71968 33079 ft 455 kts 26°
2026-05-07 13:05 52.11092 9.76669 33083 ft 455 kts 26°
2026-05-07 13:05 52.16721 9.81387 33095 ft 455 kts 27°
2026-05-07 13:06 52.22340 9.86117 33100 ft 454 kts 27°
2026-05-07 13:06 52.28164 9.89791 33103 ft 453 kts 14°
2026-05-07 13:07 52.34253 9.92440 33004 ft 453 kts 14°
2026-05-07 13:07 52.37290 9.93774 32732 ft 451 kts 14°
2026-05-07 13:07 52.40325 9.95114 32344 ft 451 kts 14°
2026-05-07 13:08 52.43368 9.96460 31405 ft 454 kts 14°
2026-05-07 13:08 52.46429 9.97814 30512 ft 456 kts 14°
2026-05-07 13:08 52.49502 9.99177 29514 ft 459 kts 14°
2026-05-07 13:08 52.52586 10.00546 28542 ft 459 kts 14°
2026-05-07 13:09 52.55676 10.01918 27561 ft 460 kts 14°
2026-05-07 13:09 52.58772 10.03296 26516 ft 462 kts 14°
2026-05-07 13:09 52.61888 10.04686 25389 ft 466 kts 14°
2026-05-07 13:09 52.65025 10.06091 24357 ft 468 kts 14°
2026-05-07 13:10 52.68173 10.07504 23309 ft 469 kts 14°
2026-05-07 13:10 52.71301 10.08908 22486 ft 463 kts 14°
2026-05-07 13:10 52.74387 10.10292 21673 ft 457 kts 14°
2026-05-07 13:10 52.77465 10.11456 20868 ft 450 kts
2026-05-07 13:11 52.80560 10.11884 20084 ft 444 kts
2026-05-07 13:11 52.83633 10.11966 19306 ft 439 kts 360°
2026-05-07 13:11 52.86667 10.12058 18536 ft 434 kts 360°
2026-05-07 13:11 52.89669 10.12159 17711 ft 429 kts
2026-05-07 13:12 52.92623 10.12260 16964 ft 421 kts 360°
2026-05-07 13:12 52.95535 10.12360 16226 ft 415 kts
2026-05-07 13:12 52.98399 10.12461 15499 ft 409 kts
2026-05-07 13:12 53.01229 10.12562 14802 ft 404 kts
2026-05-07 13:13 53.04025 10.12655 14134 ft 399 kts
2026-05-07 13:13 53.06781 10.12740 13431 ft 393 kts
2026-05-07 13:13 53.09491 10.12825 12817 ft 386 kts
2026-05-07 13:13 53.12149 10.12909 12212 ft 378 kts
2026-05-07 13:14 53.14756 10.12991 11620 ft 373 kts
2026-05-07 13:14 53.17321 10.13074 11240 ft 361 kts
2026-05-07 13:14 53.19768 10.13156 11108 ft 343 kts
2026-05-07 13:14 53.22095 10.13236 10980 ft 326 kts
2026-05-07 13:15 53.24312 10.13314 10851 ft 311 kts
2026-05-07 13:15 53.26403 10.13386 10701 ft 299 kts
2026-05-07 13:15 53.28484 10.13456 10454 ft 291 kts
2026-05-07 13:15 53.30472 10.13522 10195 ft 289 kts
2026-05-07 13:16 53.32471 10.13588 9873 ft 286 kts
2026-05-07 13:16 53.34484 10.13652 9514 ft 284 kts
2026-05-07 13:16 53.36453 10.13716 9168 ft 282 kts
2026-05-07 13:16 53.38392 10.13349 8827 ft 282 kts 346°
2026-05-07 13:17 53.40178 10.12118 8494 ft 283 kts 331°
2026-05-07 13:17 53.41719 10.10085 8149 ft 283 kts 315°
2026-05-07 13:17 53.43023 10.07661 7813 ft 276 kts 314°
2026-05-07 13:17 53.44295 10.05297 7498 ft 270 kts 314°
2026-05-07 13:18 53.45540 10.02988 7169 ft 265 kts 315°
2026-05-07 13:18 53.46765 10.00714 6840 ft 260 kts 315°
2026-05-07 13:18 53.47960 9.98476 6528 ft 255 kts 311°
2026-05-07 13:18 53.48757 9.95851 6212 ft 254 kts 285°
2026-05-07 13:19 53.48769 9.92928 5860 ft 252 kts 256°
2026-05-07 13:19 53.48010 9.90324 5529 ft 249 kts 230°
2026-05-07 13:19 53.46905 9.88097 5191 ft 248 kts 228°
2026-05-07 13:19 53.45801 9.85886 4861 ft 247 kts 228°
2026-05-07 13:20 53.44702 9.83684 4513 ft 245 kts 228°
2026-05-07 13:20 53.43609 9.81500 4166 ft 243 kts 228°
2026-05-07 13:20 53.42525 9.79336 3829 ft 242 kts 229°
2026-05-07 13:20 53.41448 9.77180 3496 ft 241 kts 229°
2026-05-07 13:21 53.40377 9.75038 3167 ft 239 kts 229°
2026-05-07 13:21 53.39316 9.72917 2996 ft 238 kts 229°
2026-05-07 13:21 53.38250 9.70791 2992 ft 239 kts 229°
2026-05-07 13:21 53.37183 9.68661 2993 ft 238 kts 229°
2026-05-07 13:22 53.36115 9.66535 2996 ft 239 kts 229°
2026-05-07 13:22 53.35049 9.64415 2999 ft 238 kts 229°
2026-05-07 13:22 53.34330 9.62989 2995 ft 238 kts 229°
2026-05-07 13:22 53.33549 9.60556 2988 ft 239 kts 258°
2026-05-07 13:23 53.33631 9.57825 2988 ft 236 kts 291°
2026-05-07 13:23 53.34550 9.55623 2995 ft 232 kts 324°
2026-05-07 13:23 53.35981 9.54627 3000 ft 226 kts 358°
2026-05-07 13:23 53.37498 9.55014 3001 ft 221 kts 20°
2026-05-07 13:24 53.38941 9.55918 2999 ft 222 kts 24°
2026-05-07 13:24 53.40371 9.56883 2996 ft 221 kts 24°
2026-05-07 13:24 53.41797 9.57852 2993 ft 221 kts 24°
2026-05-07 13:24 53.43149 9.59025 2988 ft 218 kts 43°
2026-05-07 13:25 53.44154 9.60901 3003 ft 212 kts 51°
2026-05-07 13:25 53.45058 9.62719 2994 ft 194 kts 51°
2026-05-07 13:25 53.45893 9.64389 3002 ft 182 kts 51°
2026-05-07 13:25 53.46696 9.65995 3019 ft 177 kts 51°
2026-05-07 13:26 53.47493 9.67585 3023 ft 178 kts 51°
2026-05-07 13:26 53.48287 9.69173 3016 ft 178 kts 51°
2026-05-07 13:26 53.49079 9.70756 3013 ft 176 kts 51°
2026-05-07 13:26 53.49868 9.72334 3009 ft 176 kts 51°
2026-05-07 13:27 53.50655 9.73909 3007 ft 173 kts 51°
2026-05-07 13:27 53.51418 9.75435 3009 ft 170 kts 51°
2026-05-07 13:27 53.52170 9.76943 2985 ft 167 kts 51°
2026-05-07 13:27 53.52917 9.78441 2841 ft 167 kts 52°
2026-05-07 13:28 53.53662 9.79936 2636 ft 167 kts 51°
2026-05-07 13:28 53.54405 9.81426 2420 ft 166 kts 51°
2026-05-07 13:28 53.55145 9.82912 2195 ft 165 kts 51°
2026-05-07 13:28 53.55878 9.84386 1972 ft 164 kts 52°
2026-05-07 13:29 53.56604 9.85846 1751 ft 159 kts 51°
2026-05-07 13:29 53.57272 9.87188 1537 ft 142 kts 52°
2026-05-07 13:29 53.57898 9.88450 1350 ft 138 kts 52°
2026-05-07 13:29 53.58506 9.89674 1160 ft 136 kts 52°
2026-05-07 13:30 53.59111 9.90893 967 ft 134 kts 51°
2026-05-07 13:30 53.59708 9.92098 791 ft 134 kts 50°
2026-05-07 13:30 53.60310 9.93313 602 ft 134 kts 50°
2026-05-07 13:30 53.60909 9.94521 419 ft 134 kts 51°
2026-05-07 13:31 53.61511 9.95727 250 ft 136 kts 50°
2026-05-07 13:31 53.62112 9.96940 94 ft 134 kts 50°
2026-05-07 13:31 53.62679 9.98097 44 ft 115 kts 50°
2026-05-07 13:31 53.63096 9.98940 46 ft 69 kts 50°
2026-05-07 13:32 53.63272 9.99312 47 ft 20 kts 66°
2026-05-07 13:32 53.63292 9.99539 47 ft 20 kts 98°
2026-05-07 13:32 53.63281 9.99635 48 ft 0 kts 101°
2026-05-07 13:32 53.63280 9.99639 48 ft 1 kts 101°
2026-05-07 13:33 53.63278 9.99659 48 ft 4 kts 101°
2026-05-07 13:33 53.63275 9.99724 48 ft 8 kts 87°
2026-05-07 13:33 53.63317 9.99843 48 ft 14 kts 50°
2026-05-07 13:33 53.63382 9.99969 48 ft 15 kts 49°
2026-05-07 13:34 53.63440 10.00115 48 ft 15 kts 79°
2026-05-07 13:34 53.63413 10.00325 48 ft 2 kts 86°
2026-05-07 13:34 53.63415 10.00352 48 ft 0 kts 86°